Location: Okie-Tex Star Party
(36.8978°N, 102.9520°W)
Time: 23:28:24
(UTC-05:00)

Amateur Radio Satellites - All Passes

Search period start: 29 March 2015 22:58
Search period end: 30 March 2015 22:58
Location: Okie-Tex Star Party, 36.8978°N, 102.9520°W

Satellite Date Start Highest point End Downlink Frequencies (MHz)
Time Altitude Azimuth
ESTCUBE 1 29 Mar 23:05:57 23:07:33 12° 66° (ENE) 23:09:24 437.505/2401.250
RS-15 29 Mar 23:06:39 23:15:11 24° 329° (NNW) 23:23:35 29.354- 29.394
UKube-1 29 Mar 23:11:19 23:15:35 62° 75° (ENE) 23:19:53 .
AAUSAT CUBESAT 2 29 Mar 23:13:47 23:16:55 20° 267° (W) 23:19:57 437.432
HUMSAT D 29 Mar 23:17:17 23:21:10 45° 74° (ENE) 23:25:08 437.325/437.525
ANTELSAT 29 Mar 23:19:15 23:21:14 13° 90° (E) 23:23:31 437.575/2403.000
SEEDS 29 Mar 23:21:02 23:22:49 12° 270° (W) 23:24:22 437.485
DX 1 29 Mar 23:21:57 23:26:20 89° 89° (E) 23:30:43 434.975-435.025
ISS 29 Mar 23:37:25 23:40:40 87° 147° (SSE) 23:43:56 145.825
Oscar 11 29 Mar 23:41:55 23:45:17 21° 267° (W) 23:48:34 145.826/435.025
HO-68 29 Mar 23:52:19 23:54:50 11° 274° (W) 23:56:43 435.675
FUNcube-1 29 Mar 23:52:53 23:56:35 30° 264° (W) 00:00:14 145.935
POPSAT HIP 1 29 Mar 23:55:46 23:58:07 15° 92° (E) 00:00:39 437.405
50 SAT 29 Mar 23:58:43 00:02:37 83° 258° (WSW) 00:06:34 437.505
UWE-3 29 Mar 23:58:57 00:02:09 21° 266° (W) 00:05:15 435.000/436.395/437.385
CUBEBUG 1 30 Mar 00:02:40 00:06:51 43° 73° (ENE) 00:11:02 437.445
VELOX 1 30 Mar 00:03:37 00:08:04 77° 258° (WSW) 00:12:31 145.980
NANOSAT C BR1 30 Mar 00:05:38 00:08:41 20° 94° (E) 00:11:50 145.865
CUBEBUG 2 30 Mar 00:05:52 00:08:16 14° 269° (W) 00:10:29 437.445
ZACube-1 30 Mar 00:06:31 00:09:45 21° 266° (W) 00:12:53 437.345
AISAT 30 Mar 00:08:32 00:12:57 65° 259° (W) 00:17:22 437.250
POLYITAN 1 30 Mar 00:10:02 00:13:23 23° 95° (E) 00:16:48 437.675
SPROUT 30 Mar 00:12:23 00:14:23 14° 67° (ENE) 00:16:36 437.525
UNISAT 6 30 Mar 00:13:16 00:17:47 53° 100° (E) 00:22:21 437.425
TIGRISAT 30 Mar 00:23:16 00:27:50 67° 101° (E) 00:32:28 435.000
YUBILEINY 30 Mar 00:24:53 00:29:25 15° 61° (ENE) 00:34:31 435.215
PCSat 30 Mar 00:27:37 00:32:18 29° 53° (NE) 00:37:01 145.827
ESTCUBE 1 30 Mar 00:39:28 00:43:58 62° 259° (W) 00:48:30 437.505/2401.250
QB50P1 30 Mar 00:46:23 00:50:34 62° 101° (E) 00:54:46 145.935-145.965
DUCHIFAT 1 30 Mar 00:47:58 00:52:09 63° 101° (E) 00:56:20 145.980
ANTELSAT 30 Mar 00:53:54 00:58:24 54° 285° (WNW) 01:02:57 437.575/2403.000
HUMSAT D 30 Mar 00:55:38 00:57:17 12° 270° (W) 00:58:43 437.325/437.525
QB50P2 30 Mar 01:01:20 01:05:36 85° 284° (WNW) 01:09:51 145.880/145.840
ISS 30 Mar 01:15:36 01:17:29 14° 336° (NNW) 01:19:19 145.825
BUGSAT 1 30 Mar 01:26:48 01:30:46 60° 285° (WNW) 01:34:44 437.445
RS-15 30 Mar 01:27:57 01:33:29 14° 5° (N) 01:39:11 29.354- 29.394
POPSAT HIP 1 30 Mar 01:30:16 01:34:14 39° 287° (WNW) 01:38:09 437.405
TISAT 1 30 Mar 01:33:36 01:37:49 80° 258° (WSW) 01:42:03 437.305
NANOSAT C BR1 30 Mar 01:40:53 01:44:36 30° 288° (WNW) 01:48:15 145.865
CUBEBUG 1 30 Mar 01:40:55 01:43:28 15° 269° (W) 01:45:49 437.445
POLYITAN 1 30 Mar 01:45:42 01:49:17 26° 289° (WNW) 01:52:47 437.675
SPROUT 30 Mar 01:45:58 01:50:07 48° 261° (W) 01:54:17 437.525
ITUPSAT 1 30 Mar 01:47:26 01:51:00 22° 68° (ENE) 01:54:42 437.325
UNISAT 6 30 Mar 01:51:38 01:54:12 14° 293° (WNW) 01:56:35 437.425
TIGRISAT 30 Mar 02:02:28 02:04:08 12° 294° (WNW) 02:05:32 435.000
PCSat 30 Mar 02:10:50 02:15:46 36° 250° (WSW) 02:20:38 145.827
YUBILEINY 30 Mar 02:19:00 02:27:52 85° 83° (E) 02:36:39 435.215
QB50P1 30 Mar 02:25:06 02:26:00 10° 294° (WNW) 02:26:40 145.935-145.965
DUCHIFAT 1 30 Mar 02:26:55 02:27:32 10° 294° (WNW) 02:27:53 145.980
Oscar 19 30 Mar 02:30:32 02:34:35 24° 94° (E) 02:38:46 437.125/150
SWISSCUBE 30 Mar 02:33:40 02:38:27 73° 74° (ENE) 02:43:16 437.505
BEESAT 30 Mar 02:36:32 02:41:18 72° 75° (ENE) 02:46:07 436.000
KKS-1 30 Mar 02:38:42 02:40:27 13° 66° (ENE) 02:42:27 437.445
STARS 30 Mar 03:08:19 03:11:01 17° 68° (ENE) 03:13:53 437.465
ITUPSAT 1 30 Mar 03:24:15 03:28:42 36° 263° (W) 03:33:08 437.325
ITAMSAT 1 30 Mar 03:36:57 03:41:32 32° 96° (E) 03:46:09 435.822/435.867
RS-15 30 Mar 03:41:31 03:51:12 31° 38° (NE) 04:01:30 29.354- 29.394
AIST 1 30 Mar 04:06:40 04:06:41 10° 86° (E) 04:07:00
Oscar 19 30 Mar 04:09:19 04:14:03 37° 289° (WNW) 04:18:45 437.125/150
KKS-1 30 Mar 04:12:19 04:16:41 56° 260° (W) 04:21:03 437.445
O/OREOS (USA 219) 30 Mar 04:12:57 04:16:13 20° 102° (ESE) 04:19:38 437.305
YUBILEINY 30 Mar 04:18:18 04:23:42 17° 279° (W) 04:28:33 435.215
SO-50 30 Mar 04:26:58 04:31:32 36° 52° (NE) 04:36:05 436.795
Gurwin Techsat 1B 30 Mar 04:29:05 04:34:26 86° 100° (E) 04:39:45 435.225
HORYU 2 30 Mar 04:42:54 04:46:34 25° 95° (E) 04:50:18 437.375
STARS 30 Mar 04:43:06 04:47:13 39° 262° (W) 04:51:20 437.465
AO-7 30 Mar 04:46:44 04:52:46 23° 93° (E) 04:59:09 29.400- 29.500
JAS-2 30 Mar 04:53:46 04:59:19 23° 88° (E) 05:04:49 435.910
ITAMSAT 1 30 Mar 05:16:35 05:20:57 27° 291° (WNW) 05:25:12 435.822/435.867
M-CUBED/EXP-1 PRIME 30 Mar 05:18:01 05:20:50 19° 62° (ENE) 05:23:55 437.505
VERMONT LUNAR 30 Mar 05:27:29 05:30:16 25° 149° (SSE) 05:33:05 437.305
AIST 1 30 Mar 05:39:32 05:43:53 58° 279° (W) 05:48:14
O/OREOS (USA 219) 30 Mar 05:51:13 05:55:26 34° 297° (WNW) 05:59:38 437.305
MOZHAYETS 4 30 Mar 05:51:52 05:56:29 87° 83° (E) 06:01:09
RS-15 30 Mar 05:53:30 06:05:07 83° 242° (WSW) 06:17:11 29.354- 29.394
ISS 30 Mar 06:06:59 06:10:01 37° 35° (NE) 06:13:03 145.825
SO-50 30 Mar 06:07:51 06:11:57 26° 248° (WSW) 06:15:55 436.795
Gurwin Techsat 1B 30 Mar 06:12:00 06:13:47 11° 298° (WNW) 06:15:13 435.225
PHONESAT 2.4 30 Mar 06:13:47 06:16:41 24° 148° (SSE) 06:19:37 2401.200-2431.200
HORYU 2 30 Mar 06:19:22 06:23:12 27° 290° (WNW) 06:26:58 437.375
AUBIESAT-1 30 Mar 06:26:13 06:30:12 80° 255° (WSW) 06:34:33 437.475
PRISM 30 Mar 06:36:48 06:38:57 14° 67° (ENE) 06:41:19 437.425
GONETS M04 30 Mar 06:37:16 06:44:11 26° 68° (ENE) 06:51:24
JAS-2 30 Mar 06:37:25 06:45:03 65° 287° (WNW) 06:52:00 435.910
AO-7 30 Mar 06:38:03 06:46:18 69° 290° (WNW) 06:54:30 29.400- 29.500
M-CUBED/EXP-1 PRIME 30 Mar 06:51:50 06:55:28 34° 259° (W) 06:59:22 437.505
VERMONT LUNAR 30 Mar 07:04:27 07:07:47 74° 342° (NNW) 07:11:08 437.305
STRAND 1 30 Mar 07:09:53 07:14:02 26° 69° (ENE) 07:18:18 437.568
CUBESAT XI-V 30 Mar 07:41:01 07:45:45 86° 258° (WSW) 07:50:29 437.345
CUTE-I 30 Mar 07:42:38 07:47:36 40° 98° (E) 07:52:34 437.470
Cubesat XI-IV 30 Mar 07:43:03 07:48:02 41° 98° (E) 07:53:02 437.490
ISS 30 Mar 07:43:56 07:46:14 18° 230° (SW) 07:48:28 145.825
PHONESAT 2.4 30 Mar 07:51:17 07:54:49 78° 343° (NNW) 07:58:21 2401.200-2431.200
RS-15 30 Mar 08:08:56 08:16:18 18° 258° (WSW) 08:22:53 29.354- 29.394
PRISM 30 Mar 08:10:05 08:14:07 44° 261° (W) 08:18:10 437.425
CUSAT 1 30 Mar 08:16:38 08:20:27 26° 78° (ENE) 08:25:20 437.405
JAS-2 30 Mar 08:25:53 08:28:41 12° 305° (NW) 08:30:57 435.910
GONETS M04 30 Mar 08:33:03 08:41:44 63° 268° (W) 08:50:24
AO-7 30 Mar 08:33:46 08:37:48 14° 308° (NW) 08:41:21 29.400- 29.500
VERMONT LUNAR 30 Mar 08:42:31 08:45:43 42° 360° (N) 08:48:56 437.305
STRAND 1 30 Mar 08:48:26 08:53:07 34° 263° (W) 08:57:45 437.568
DANDE 30 Mar 09:10:41 09:14:55 68° 81° (E) 09:20:41 436.750
GOMX 1 30 Mar 09:21:37 09:22:57 11° 91° (E) 09:24:36 467.674
CUTE-I 30 Mar 09:23:16 09:27:28 23° 293° (WNW) 09:31:31 437.470
Cubesat XI-IV 30 Mar 09:23:45 09:27:55 23° 293° (WNW) 09:31:57 437.490
PHONESAT 2.4 30 Mar 09:29:59 09:33:23 44° 359° (N) 09:36:48 2401.200-2431.200
HO-68 30 Mar 09:30:14 09:35:23 22° 92° (E) 09:40:48 435.675
COMPASS 1 30 Mar 09:51:57 09:54:06 14° 91° (E) 09:56:26 437.405
BEESAT 3 30 Mar 09:57:34 09:58:51 12° 109° (ESE) 10:00:22 437.485
CUSAT 1 30 Mar 09:59:04 10:03:12 30° 263° (W) 10:08:19 437.405
BRITE-PL 30 Mar 10:15:09 10:19:23 79° 102° (ESE) 10:23:51 437.365/2234.400
CINEMA 3 30 Mar 10:15:22 10:18:11 17° 92° (E) 10:21:16 145.822/145.860
VERMONT LUNAR 30 Mar 10:20:18 10:23:40 75° 18° (NNE) 10:27:01 437.305
CANX-2 30 Mar 10:23:11 10:27:27 56° 100° (E) 10:31:41 2200.000
DELFI C3 30 Mar 10:33:55 10:35:23 12° 90° (E) 10:37:04 145.870
CUTE 1.7 + AOD 2 30 Mar 10:36:56 10:41:16 75° 100° (E) 10:45:34 437.475
DOVE 4 30 Mar 10:41:24 10:45:45 66° 101° (E) 10:50:22 437.250
BEESAT 2 30 Mar 10:56:37 11:00:33 48° 116° (ESE) 11:04:34 435.950
GOMX 1 30 Mar 10:57:14 11:01:26 53° 285° (WNW) 11:05:53 467.674
AAUSAT CUBESAT 2 30 Mar 10:57:54 11:02:08 76° 101° (ESE) 11:06:21 437.432
NANOSAT C BR1 30 Mar 10:57:58 10:59:25 12° 67° (ENE) 11:01:05 145.865
POLYITAN 1 30 Mar 11:02:25 11:04:29 14° 67° (ENE) 11:06:44 437.675
UKube-1 30 Mar 11:03:18 11:04:58 12° 90° (E) 11:06:52 .
SEEDS 30 Mar 11:04:52 11:09:06 61° 284° (WNW) 11:13:20 437.485
PHONESAT 2.4 30 Mar 11:08:26 11:11:59 74° 16° (NNE) 11:15:31 2401.200-2431.200
UNISAT 6 30 Mar 11:10:37 11:14:26 33° 72° (ENE) 11:18:20 437.425
DX 1 30 Mar 11:13:45 11:16:38 18° 93° (E) 11:19:39 434.975-435.025
HO-68 30 Mar 11:16:34 11:23:41 64° 289° (WNW) 11:30:44 435.675
TIGRISAT 30 Mar 11:20:13 11:24:12 42° 73° (ENE) 11:28:16 435.000
COMPASS 1 30 Mar 11:26:01 11:30:03 42° 287° (WNW) 11:34:03 437.405
Oscar 11 30 Mar 11:30:17 11:34:41 81° 102° (ESE) 11:39:03 145.826/435.025
BEESAT 3 30 Mar 11:32:29 11:36:30 53° 303° (WNW) 11:40:33 437.485
QB50P1 30 Mar 11:37:11 11:40:58 34° 72° (ENE) 11:44:48 145.935-145.965
DUCHIFAT 1 30 Mar 11:38:27 11:42:15 34° 72° (ENE) 11:46:05 145.980
50 SAT 30 Mar 11:40:10 11:42:23 15° 92° (E) 11:44:47 437.505
FUNcube-1 30 Mar 11:42:41 11:47:01 55° 100° (E) 11:51:26 145.935
UWE-3 30 Mar 11:49:28 11:53:55 85° 102° (ESE) 11:58:29 435.000/436.395/437.385
ANTELSAT 30 Mar 11:50:44 11:54:59 80° 257° (WSW) 11:59:19 437.575/2403.000
CINEMA 3 30 Mar 11:51:24 11:55:34 40° 286° (WNW) 11:59:53 145.822/145.860
QB50P2 30 Mar 11:52:01 11:56:07 52° 75° (ENE) 12:00:15 145.880/145.840
ZACube-1 30 Mar 11:55:53 12:00:19 81° 103° (ESE) 12:04:50 437.345
CUBEBUG 2 30 Mar 11:56:36 12:01:01 65° 284° (WNW) 12:05:34 437.445
VELOX 1 30 Mar 11:57:12 12:00:42 23° 95° (E) 12:04:16 145.980
VERMONT LUNAR 30 Mar 11:58:22 12:01:10 24° 211° (SSW) 12:03:57 437.305
CANX-2 30 Mar 12:01:15 12:02:57 12° 293° (WNW) 12:04:26 2200.000
AISAT 30 Mar 12:02:08 12:05:52 27° 96° (E) 12:09:41 437.250
DELFI C3 30 Mar 12:06:56 12:10:52 45° 286° (WNW) 12:14:47 145.870
AIST 2 30 Mar 12:14:03 12:18:17 70° 301° (WNW) 12:22:35 435.215
BUGSAT 1 30 Mar 12:14:22 12:18:29 67° 76° (ENE) 12:22:36 437.445
POPSAT HIP 1 30 Mar 12:20:28 12:24:40 72° 259° (WSW) 12:28:53 437.405
DOVE 4 30 Mar 12:22:08 12:23:10 11° 293° (WNW) 12:23:55 437.250
NANOSAT C BR1 30 Mar 12:30:45 12:34:52 53° 260° (W) 12:39:00 145.865
ESTCUBE 1 30 Mar 12:34:52 12:38:53 32° 97° (E) 12:42:55 437.505/2401.250
POLYITAN 1 30 Mar 12:36:02 12:40:04 44° 261° (W) 12:44:08 437.675
BEESAT 2 30 Mar 12:36:20 12:39:01 16° 314° (NW) 12:41:34 435.950
UKube-1 30 Mar 12:37:17 12:41:28 49° 287° (WNW) 12:45:38 .
HUMSAT D 30 Mar 12:39:01 12:43:15 65° 284° (WNW) 12:47:31 437.325/437.525
PHONESAT 2.4 30 Mar 12:47:06 12:50:09 27° 211° (SSW) 12:53:11 2401.200-2431.200
UNISAT 6 30 Mar 12:48:26 12:51:23 18° 268° (W) 12:54:13 437.425
DX 1 30 Mar 12:49:04 12:53:02 34° 288° (WNW) 12:56:55 434.975-435.025
TIGRISAT 30 Mar 12:58:55 13:01:15 14° 269° (W) 13:03:23 435.000
HO-68 30 Mar 13:08:30 13:10:13 11° 306° (NW) 13:11:26 435.675
50 SAT 30 Mar 13:13:44 13:17:28 36° 287° (WNW) 13:21:11 437.505
QB50P1 30 Mar 13:14:08 13:16:59 17° 267° (W) 13:19:42 145.935-145.965
DUCHIFAT 1 30 Mar 13:15:24 13:18:13 17° 267° (W) 13:20:54 145.980
FUNcube-1 30 Mar 13:20:55 13:22:58 13° 293° (WNW) 13:24:49 145.935
TISAT 1 30 Mar 13:21:32 13:24:26 19° 93° (E) 13:27:28 437.305
YUBILEINY 30 Mar 13:23:53 13:29:16 19° 82° (E) 13:35:09 435.215
CUBEBUG 1 30 Mar 13:29:56 13:34:14 65° 285° (WNW) 13:38:29 437.445
QB50P2 30 Mar 13:31:07 13:32:25 11° 270° (W) 13:33:27 145.880/145.840
VELOX 1 30 Mar 13:33:30 13:37:16 27° 289° (WNW) 13:40:56 145.980
SPROUT 30 Mar 13:35:05 13:38:57 33° 97° (E) 13:42:50 437.525
AISAT 30 Mar 13:38:51 13:42:23 23° 290° (WNW) 13:45:50 437.250
Oscar 19 30 Mar 13:45:19 13:49:31 28° 69° (ENE) 13:53:52 437.125/150
Gurwin Techsat 1B 30 Mar 14:11:41 14:13:47 13° 63° (ENE) 14:16:11 435.225
ESTCUBE 1 30 Mar 14:12:08 14:15:36 21° 291° (WNW) 14:18:56 437.505/2401.250
O/OREOS (USA 219) 30 Mar 14:24:20 14:28:10 27° 61° (ENE) 14:32:01 437.305
SWISSCUBE 30 Mar 14:37:11 14:40:52 22° 94° (E) 14:44:38 437.505
BEESAT 30 Mar 14:39:59 14:43:36 22° 94° (E) 14:47:21 436.000
ITAMSAT 1 30 Mar 14:52:38 14:57:26 39° 71° (ENE) 15:02:17 435.822/435.867
TISAT 1 30 Mar 14:56:36 15:00:20 31° 288° (WNW) 15:04:00 437.305
PCSat 30 Mar 15:06:47 15:11:47 40° 111° (ESE) 15:16:52 145.827
SPROUT 30 Mar 15:11:48 15:14:50 19° 291° (WNW) 15:17:45 437.525
YUBILEINY 30 Mar 15:16:23 15:25:12 79° 278° (W) 15:34:05 435.215
Oscar 19 30 Mar 15:24:17 15:28:48 31° 264° (W) 15:33:18 437.125/150
ITUPSAT 1 30 Mar 15:26:45 15:31:33 69° 101° (E) 15:36:18 437.325
HORYU 2 30 Mar 15:39:53 15:42:49 18° 68° (ENE) 15:45:54 437.375
AO-7 30 Mar 15:43:35 15:50:09 28° 60° (ENE) 15:56:56 29.400- 29.500
Gurwin Techsat 1B 30 Mar 15:47:52 15:53:11 77° 257° (WSW) 15:58:32 435.225
AIST 1 30 Mar 15:49:38 15:53:13 26° 75° (ENE) 15:56:50
JUGNU 30 Mar 15:55:32 15:58:40 15° 177° (S) 16:01:50 437.505
O/OREOS (USA 219) 30 Mar 16:03:46 16:07:31 25° 257° (WSW) 16:11:10 437.305
KKS-1 30 Mar 16:05:57 16:09:56 32° 97° (E) 16:13:56 437.445
SWISSCUBE 30 Mar 16:14:30 16:18:49 33° 289° (WNW) 16:23:02 437.505
BEESAT 30 Mar 16:17:14 16:21:34 34° 289° (WNW) 16:25:49 436.000
ITAMSAT 1 30 Mar 16:33:00 16:37:06 22° 267° (W) 16:41:03 435.822/435.867
STARS 30 Mar 16:34:57 16:39:08 42° 99° (E) 16:43:21 437.465
JAS-2 30 Mar 16:45:27 16:51:59 48° 69° (ENE) 16:59:15 435.910
PCSat 30 Mar 16:50:48 16:55:21 26° 308° (NW) 16:59:52 145.827
SRMSAT 30 Mar 16:57:24 17:00:12 14° 174° (S) 17:03:03 437.500
ITUPSAT 1 30 Mar 17:07:02 17:08:55 12° 296° (WNW) 17:10:32 437.325
HORYU 2 30 Mar 17:15:07 17:19:14 37° 262° (W) 17:23:22 437.375
YUBILEINY 30 Mar 17:19:13 17:23:49 14° 300° (WNW) 17:27:45 435.215
AIST 1 30 Mar 17:27:29 17:30:46 21° 271° (W) 17:33:56
AO-7 30 Mar 17:34:14 17:42:27 63° 257° (WSW) 17:50:41 29.400- 29.500
KKS-1 30 Mar 17:43:02 17:46:24 21° 291° (WNW) 17:49:39 437.445
JUGNU 30 Mar 17:44:13 17:46:55 13° 187° (S) 17:49:34 437.505
MOZHAYETS 4 30 Mar 17:50:01 17:53:46 25° 94° (E) 17:57:37
RS-15 30 Mar 18:07:58 18:13:30 16° 102° (ESE) 18:19:56 29.354- 29.394
AUBIESAT-1 30 Mar 18:12:17 18:13:35 11° 92° (E) 18:15:14 437.475
STARS 30 Mar 18:12:34 18:15:18 16° 293° (WNW) 18:17:52 437.465
JAS-2 30 Mar 18:31:20 18:37:19 30° 269° (W) 18:43:40 435.910
M-CUBED/EXP-1 PRIME 30 Mar 18:35:44 18:39:38 24° 98° (E) 18:43:30 437.505
SO-50 30 Mar 18:40:39 18:43:40 18° 110° (ESE) 18:46:56 436.795
SRMSAT 30 Mar 18:45:32 18:48:35 14° 184° (S) 18:51:36 437.500
CUTE-I 30 Mar 19:02:08 19:07:20 53° 73° (ENE) 19:12:33 437.470
Cubesat XI-IV 30 Mar 19:02:43 19:07:55 55° 73° (ENE) 19:13:10 437.490
BEESAT 2 30 Mar 19:19:03 19:21:45 17° 47° (NE) 19:24:32 435.950
MOZHAYETS 4 30 Mar 19:27:00 19:31:00 28° 289° (WNW) 19:34:56
GONETS M04 30 Mar 19:35:46 19:42:57 32° 86° (E) 19:50:25
CUBESAT XI-V 30 Mar 19:40:41 19:44:37 28° 95° (E) 19:48:35 437.345
AUBIESAT-1 30 Mar 19:44:09 19:48:58 70° 289° (WNW) 19:53:37 437.475
BEESAT 3 30 Mar 19:53:40 19:57:35 42° 55° (NE) 20:01:28 437.485
PRISM 30 Mar 19:55:13 19:58:50 29° 96° (E) 20:02:28 437.425
HO-68 30 Mar 19:59:14 20:02:17 14° 56° (ENE) 20:05:44 435.675
M-CUBED/EXP-1 PRIME 30 Mar 20:10:09 20:14:33 34° 294° (WNW) 20:18:46 437.505
RS-15 30 Mar 20:13:34 20:24:28 84° 118° (ESE) 20:35:33 29.354- 29.394
SO-50 30 Mar 20:19:28 20:23:53 44° 306° (NW) 20:28:29 436.795
GOMX 1 30 Mar 20:29:48 20:30:02 10° 67° (ENE) 20:30:33 467.674
AIST 2 30 Mar 20:38:13 20:42:10 37° 54° (NE) 20:46:05 435.215
CUTE-I 30 Mar 20:44:14 20:47:48 17° 269° (W) 20:51:07 437.470
Cubesat XI-IV 30 Mar 20:44:56 20:48:26 17° 269° (W) 20:51:40 437.490
BEESAT 2 30 Mar 20:56:13 21:00:09 43° 245° (WSW) 21:04:00 435.950
STRAND 1 30 Mar 21:00:42 21:05:50 83° 286° (WNW) 21:10:56 437.568
CANX-2 30 Mar 21:14:17 21:17:57 30° 72° (ENE) 21:21:41 2200.000
CINEMA 3 30 Mar 21:17:25 21:18:26 11° 67° (ENE) 21:19:41 145.822/145.860
CUBESAT XI-V 30 Mar 21:18:10 21:21:59 25° 290° (WNW) 21:25:41 437.345
BRITE-PL 30 Mar 21:23:49 21:28:32 71° 76° (ENE) 21:32:57 437.365/2234.400
CUSAT 1 30 Mar 21:26:19 21:28:25 19° 96° (E) 21:30:26 437.405
CUTE 1.7 + AOD 2 30 Mar 21:27:44 21:31:38 38° 73° (ENE) 21:35:36 437.475
PRISM 30 Mar 21:31:03 21:34:10 20° 291° (WNW) 21:37:10 437.425
GONETS M04 30 Mar 21:31:05 21:39:29 51° 284° (WNW) 21:47:54
BEESAT 3 30 Mar 21:32:58 21:35:19 14° 250° (WSW) 21:37:28 437.485
HO-68 30 Mar 21:41:52 21:49:01 78° 73° (ENE) 21:56:13 435.675
DOVE 4 30 Mar 21:45:19 21:49:30 49° 75° (ENE) 21:53:35 437.250
AAUSAT CUBESAT 2 30 Mar 21:46:42 21:50:31 36° 73° (ENE) 21:54:25 437.432
SEEDS 30 Mar 21:54:30 21:58:39 67° 76° (ENE) 22:02:52 437.485
GOMX 1 30 Mar 22:03:20 22:07:50 64° 259° (W) 22:12:05 467.674
DX 1 30 Mar 22:08:34 22:10:23 13° 66° (ENE) 22:12:26 434.975-435.025
COMPASS 1 30 Mar 22:14:40 22:18:50 85° 258° (WSW) 22:23:04 437.405
AIST 2 30 Mar 22:17:35 22:20:31 18° 249° (WSW) 22:23:16 435.215
Oscar 11 30 Mar 22:22:50 22:26:55 45° 74° (ENE) 22:31:04 145.826/435.025
DANDE 30 Mar 22:23:57 22:27:03 58° 279° (W) 22:29:44 436.750
RS-15 30 Mar 22:29:04 22:38:21 29° 323° (NW) 22:47:36 29.354- 29.394
FUNcube-1 30 Mar 22:36:54 22:40:30 30° 72° (ENE) 22:44:12 145.935
ISS 30 Mar 22:44:18 22:47:20 38° 134° (SE) 22:50:24 145.825
UWE-3 30 Mar 22:44:46 22:48:45 49° 75° (ENE) 22:52:48 435.000/436.395/437.385
ZACube-1 30 Mar 22:50:00 22:53:57 45° 74° (ENE) 22:57:56 437.345
CANX-2 30 Mar 22:50:47 22:53:57 20° 267° (W) 22:57:01 2200.000
